Weather History for KMCC - March, 2013

Change the Weather History Date:

Friday, March 22, 2013

  Actual Average (KMHR) Record (KMHR)
Temperature  
Mean Temperature 52 °F -  
Max Temperature 64 °F 66 °F 75 °F (2014)
Min Temperature 39 °F 42 °F 33 °F (2008)
Degree Days  
Heating Degree Days 14    
Growing Degree Days 2 (Base 50)    
Moisture  
Dew Point 26 °F    
Average Humidity 41    
Maximum Humidity 70    
Minimum Humidity 16    
Precipitation  
Precipitation 0.00 in - - ()
Sea Level Pressure  
Sea Level Pressure 30.06 in    
Wind  
Wind Speed 12 mph (NW)    
Max Wind Speed 28 mph    
Max Gust Speed 37 mph    
Visibility 10 miles    
Events      
Averages and records for this station are not official NWS values.
T = Trace of Precipitation, MM = Missing Value Source: NWS Daily Summary

Daily Weather History Graph

Daily Weather History Graph

Search for Another Location

Airport or City:

Trip Planner

Search our weather history database for the weather conditions in past years. The results will help you decide how hot, cold, wet, or windy it might be!

Date:

Astronomy

Mar. 22, 2013 Rise Set
Actual Time 7:05 AM PDT 7:19 PM PDT
Civil Twilight 6:38 AM PDT 7:46 PM PDT
Nautical Twilight 6:07 AM PDT 8:17 PM PDT
Astronomical Twilight 5:36 AM PDT 8:49 PM PDT
Moon 2:54 PM PDT (3/22) 4:06 AM PDT (3/22)
Length of Visible Light 13h 07m
Length of Day
12h 14m
Waxing Gibbous, 78% of the Moon is Illuminated
Mar 22
Waxing Gibbous
Mar 27
Full
Apr 2
Last Quarter
Apr 10
New
Apr 18
First Quarter

Hourly Weather History & Observations

Time (PDT) Temp. Windchill Dew Point Humidity Pressure Visibility Wind Dir Wind Speed Gust Speed Precip Events Conditions
12:05 AM 46.4 °F 41.9 °F 32.0 °F 57% 30.03 in 10.0 mi NW 9.2 mph - N/A   Clear
12:25 AM 48.2 °F - 32.0 °F 54% 30.03 in 10.0 mi NW 10.4 mph - N/A   Clear
12:45 AM 48.2 °F - 32.0 °F 54% 30.03 in 10.0 mi NW 11.5 mph - N/A   Clear
1:05 AM 48.2 °F - 32.0 °F 54% 30.03 in 10.0 mi NW 10.4 mph - N/A   Clear
1:25 AM 46.4 °F 41.9 °F 32.0 °F 57% 30.03 in 10.0 mi NW 9.2 mph - N/A   Clear
1:45 AM 44.6 °F 40.7 °F 32.0 °F 61% 30.04 in 10.0 mi NNW 6.9 mph - N/A   Clear
2:05 AM 41.0 °F 36.4 °F 32.0 °F 70% 30.04 in 10.0 mi North 6.9 mph - N/A   Clear
2:25 AM 42.8 °F 40.1 °F 32.0 °F 66% 30.05 in 10.0 mi WNW 4.6 mph - N/A   Clear
2:45 AM 44.6 °F 40.7 °F 32.0 °F 61% 30.05 in 10.0 mi NW 6.9 mph - N/A   Clear
3:05 AM 44.6 °F 41.4 °F 30.2 °F 57% 30.05 in 10.0 mi NW 5.8 mph - N/A   Clear
3:25 AM 42.8 °F 38.0 °F 30.2 °F 61% 30.05 in 10.0 mi West 8.1 mph - N/A   Clear
3:45 AM 44.6 °F 38.4 °F 30.2 °F 57% 30.04 in 10.0 mi NW 12.7 mph - N/A   Clear
4:05 AM 44.6 °F 38.8 °F 28.4 °F 53% 30.04 in 10.0 mi NW 11.5 mph - N/A   Clear
4:25 AM 42.8 °F 37.0 °F 28.4 °F 57% 30.05 in 10.0 mi NNW 10.4 mph - N/A   Clear
4:45 AM 41.0 °F 37.1 °F 28.4 °F 61% 30.05 in 10.0 mi NNW 5.8 mph - N/A   Clear
5:05 AM 41.0 °F 35.8 °F 28.4 °F 61% 30.05 in 10.0 mi NNW 8.1 mph - N/A   Clear
5:25 AM 39.2 °F 33.0 °F 28.4 °F 65% 30.05 in 10.0 mi NNW 9.2 mph - N/A   Clear
5:45 AM 41.0 °F 36.4 °F 28.4 °F 61% 30.06 in 10.0 mi NNW 6.9 mph - N/A   Clear
6:05 AM 39.2 °F 37.0 °F 28.4 °F 65% 30.07 in 10.0 mi NW 3.5 mph - N/A   Clear
6:25 AM 39.2 °F - 28.4 °F 65% 30.07 in 10.0 mi Calm Calm - N/A   Clear
6:45 AM 41.0 °F - 28.4 °F 61% 30.07 in 10.0 mi Calm Calm - N/A   Clear
7:05 AM 39.2 °F 33.6 °F 26.6 °F 61% 30.08 in 10.0 mi NNW 8.1 mph - N/A   Clear
7:25 AM 39.2 °F 35.0 °F 26.6 °F 61% 30.08 in 10.0 mi NNW 5.8 mph - N/A   Clear
7:45 AM 39.2 °F 34.2 °F 28.4 °F 65% 30.09 in 10.0 mi NNW 6.9 mph - N/A   Clear
8:05 AM 41.0 °F 36.4 °F 28.4 °F 61% 30.09 in 10.0 mi NNW 6.9 mph - N/A   Clear
8:25 AM 44.6 °F 39.7 °F 28.4 °F 53% 30.10 in 9.0 mi NNW 9.2 mph - N/A   Clear
8:45 AM 46.4 °F 40.4 °F 28.4 °F 50% 30.09 in 10.0 mi NNW 13.8 mph 18.4 mph N/A   Clear
9:05 AM 48.2 °F - 28.4 °F 46% 30.10 in 10.0 mi NNW 13.8 mph - N/A   Clear
9:25 AM 50.0 °F - 28.4 °F 43% 30.10 in 10.0 mi NNW 15.0 mph - N/A   Clear
9:45 AM 53.6 °F - 28.4 °F 38% 30.11 in 10.0 mi NW 17.3 mph - N/A   Clear
10:05 AM 53.6 °F - 26.6 °F 35% 30.10 in 9.0 mi NW 18.4 mph 24.2 mph N/A   Clear
10:25 AM 55.4 °F - 24.8 °F 31% 30.10 in 10.0 mi NNW 17.3 mph - N/A   Clear
10:45 AM 57.2 °F - 23.0 °F 27% 30.10 in 9.0 mi NW 19.6 mph 28.8 mph N/A   Clear
11:05 AM 59.0 °F - 23.0 °F 25% 30.10 in 9.0 mi NW 21.9 mph 27.6 mph N/A   Clear
11:25 AM 59.0 °F - 19.4 °F 22% 30.10 in 10.0 mi NW 23.0 mph 32.2 mph N/A   Clear
11:45 AM 59.0 °F - 19.4 °F 22% 30.10 in 9.0 mi NW 20.7 mph 32.2 mph N/A   Clear
12:05 PM 60.8 °F - 19.4 °F 20% 30.09 in 10.0 mi NW 24.2 mph 33.4 mph N/A   Clear
12:25 PM 60.8 °F - 14.0 °F 16% 30.09 in 10.0 mi NW 26.5 mph 33.4 mph N/A   Clear
12:45 PM 62.6 °F - 15.8 °F 16% 30.08 in 9.0 mi NW 26.5 mph 36.8 mph N/A   Clear
1:05 PM 62.6 °F - 19.4 °F 19% 30.07 in 10.0 mi NNW 24.2 mph 35.7 mph N/A   Clear
1:25 PM 62.6 °F - 23.0 °F 22% 30.08 in 10.0 mi NW 21.9 mph 28.8 mph N/A   Clear
1:45 PM 62.6 °F - 17.6 °F 18% 30.07 in 9.0 mi NW 27.6 mph 34.5 mph N/A   Clear
2:05 PM 62.6 °F - 19.4 °F 19% 30.06 in 9.0 mi NW 26.5 mph 32.2 mph N/A   Clear
2:25 PM 62.6 °F - 17.6 °F 18% 30.06 in 10.0 mi NW 23.0 mph 32.2 mph N/A   Clear
2:45 PM 64.4 °F - 19.4 °F 18% 30.05 in 10.0 mi NNW 20.7 mph 28.8 mph N/A   Clear
3:05 PM 64.4 °F - 19.4 °F 18% 30.04 in 10.0 mi NNW 24.2 mph 31.1 mph N/A   Clear
3:25 PM 64.4 °F - 21.2 °F 19% 30.05 in 10.0 mi NW 18.4 mph 26.5 mph N/A   Clear
3:45 PM 64.4 °F - 19.4 °F 18% 30.04 in 10.0 mi NW 19.6 mph 28.8 mph N/A   Clear
4:05 PM 64.4 °F - 19.4 °F 18% 30.04 in 10.0 mi NW 20.7 mph 27.6 mph N/A   Clear
4:25 PM 64.4 °F - 21.2 °F 19% 30.04 in 10.0 mi NW 24.2 mph 29.9 mph N/A   Clear
4:45 PM 62.6 °F - 19.4 °F 19% 30.05 in 10.0 mi NW 19.6 mph 27.6 mph N/A   Clear
5:05 PM 62.6 °F - 19.4 °F 19% 30.04 in 10.0 mi NNW 21.9 mph - N/A   Clear
5:25 PM 62.6 °F - 21.2 °F 20% 30.03 in 10.0 mi NNW 17.3 mph 23.0 mph N/A   Clear
5:45 PM 62.6 °F - 23.0 °F 22% 30.04 in 10.0 mi North 15.0 mph 23.0 mph N/A   Clear
6:05 PM 62.6 °F - 23.0 °F 22% 30.04 in 10.0 mi NNW 13.8 mph - N/A   Clear
6:25 PM 60.8 °F - 24.8 °F 25% 30.04 in 10.0 mi NNW 9.2 mph - N/A   Clear
6:45 PM 59.0 °F - 24.8 °F 27% 30.04 in 10.0 mi NNW 9.2 mph 16.1 mph N/A   Clear
7:05 PM 57.2 °F - 26.6 °F 31% 30.05 in 10.0 mi NW 9.2 mph - N/A   Clear
7:25 PM 53.6 °F - 26.6 °F 35% 30.04 in 10.0 mi NW 6.9 mph - N/A   Clear
7:45 PM 53.6 °F - 26.6 °F 35% 30.05 in 10.0 mi WNW 5.8 mph - N/A   Clear
8:05 PM 53.6 °F - 26.6 °F 35% 30.05 in 10.0 mi WNW 5.8 mph - N/A   Clear
8:25 PM 51.8 °F - 28.4 °F 41% 30.06 in 10.0 mi West 4.6 mph - N/A   Clear
8:45 PM 50.0 °F - 28.4 °F 43% 30.06 in 10.0 mi WNW 6.9 mph - N/A   Clear
9:05 PM 50.0 °F - 26.6 °F 40% 30.07 in 10.0 mi NNW 4.6 mph - N/A   Clear
9:25 PM 48.2 °F - 28.4 °F 46% 30.07 in 10.0 mi NW 9.2 mph - N/A   Clear
9:45 PM 50.0 °F - 28.4 °F 43% 30.08 in 10.0 mi NW 9.2 mph - N/A   Clear
10:05 PM 50.0 °F - 28.4 °F 43% 30.08 in 10.0 mi NW 9.2 mph - N/A   Clear
10:25 PM 48.2 °F - 28.4 °F 46% 30.07 in 10.0 mi NNW 8.1 mph - N/A   Clear
10:45 PM 46.4 °F 42.4 °F 30.2 °F 53% 30.08 in 10.0 mi North 8.1 mph - N/A   Clear
11:05 PM 46.4 °F 42.4 °F 28.4 °F 50% 30.09 in 10.0 mi NNW 8.1 mph - N/A   Clear
11:25 PM 46.4 °F 42.4 °F 28.4 °F 50% 30.08 in 10.0 mi North 8.1 mph - N/A   Clear
11:45 PM 44.6 °F 40.2 °F 28.4 °F 53% 30.08 in 10.0 mi NW 8.1 mph - N/A   Clear